Skip Page Navigation
NASA JPL Caltech
NASA Logo - Jet Propulsion Laboratory + View the NASA Portal
+ Center for Near-Earth Object Studies
JPL Home Earth Solar System Stars & Galaxies Technology
JPL Solar System Dynamics
BODIES ORBITS EPHEMERIDES TOOLS PHYSICAL DATA DISCOVERY FAQ SITE MAP
IMPORTANT: The SSD Announcement email list is now available. Major changes are coming in the near future, including possible hostname and/or URL changes. To be notified of such changes, subscribe to this email list.

Please visit this page for more details.


JPL Small-Body Database Browser
Search: [ help ]  
413803 (2006 JE31)
Classification: Main-belt Asteroid          SPK-ID: 2413803
Ephemeris | Orbit Diagram | Orbital Elements | Mission Design | Physical Parameters | Discovery Circumstances | Close-Approach Data ]

[ show orbit diagram ]
Orbital Elements at Epoch 2458600.5 (2019-Apr-27.0) TDB
Reference: JPL 15 (heliocentric ecliptic J2000)
 Element Value Uncertainty (1-sigma)   Units 
e .1215613629532806 4.6849e-08  
a 3.082492589570698 4.692e-08 au
q 2.707780589089097 1.4733e-07 au
i 12.29758463078989 5.6594e-06 deg
node 77.38956325843878 2.7304e-05 deg
peri 73.51867611725912 3.9082e-05 deg
M 207.4947151546633 3.0001e-05 deg
tp 2459437.901783837945
(2021-Aug-11.40178384)
0.00017685 TDB
period 1976.748822097481
5.41
4.5133e-05
1.236e-07
d
yr
n .1821172199399682 4.1581e-09 deg/d
Q 3.457204590052299 5.2623e-08 au
  Orbit Determination Parameters
   # obs. used (total)      201  
   data-arc span      5852 days (16.02 yr)  
   first obs. used      2003-10-23  
   last obs. used      2019-10-31  
   planetary ephem.      DE431  
   SB-pert. ephem.      SB431-N16  
   condition code      0  
   norm. resid. RMS      .48053  
   source      ORB  
   producer      Otto Matic  
   solution date      2019-Nov-08 14:39:15  

Additional Information
 Earth MOID = 1.75188 au 
 Jupiter MOID = 1.7357 au 
 T_jup = 3.181 
[ show covariance matrix ]

Ephemeris | Orbit Diagram | Orbital Elements | Mission Design | Physical Parameters | Discovery Circumstances | Close-Approach Data ]

Physical Parameter Table
Parameter Symbol Value Units Sigma Reference Notes
absolute magnitude H 15.7   n/a MPO419034  
diameter diameter 4.405 km 0.489 urn:nasa:pds:neowise_diameters_albedos::2.0[mainbelt] (http://adsabs.harvard.edu/abs/2011ApJ...741...68M)  
geometric albedo albedo 0.044   0.021 urn:nasa:pds:neowise_diameters_albedos::2.0[mainbelt] (http://adsabs.harvard.edu/abs/2011ApJ...741...68M)  

413803 (2006 JE31)          Discovered 2006-May-03 by Spacewatch at Kitt Peak
Reference: Last Updated: 2014-11-10

[ show close-approach data ]
Alternate Designations
 2006 JE31 = 2009 VD97 
Ephemeris | Orbit Diagram | Orbital Elements | Mission Design | Physical Parameters | Discovery Circumstances | Close-Approach Data ]
ABOUT SSD CREDITS/AWARDS PRIVACY/COPYRIGHT GLOSSARY LINKS
FirstGov
(server date/time)  
NASA Home Page
Site Manager:   Ryan S. Park
Webmaster  Alan B. Chamberlin